This is the latest recevied weather packets stored in our database for station/object G8PZT. If no packets are shown the sender has not sent any weather packets the latest 10 day(s).
| Time | Temp. | Humidity | Pressure | Rain* | Wind** | Luminosity | Snow |
|---|---|---|---|---|---|---|---|
| 1777651315 | 15.56° C | 43% | - | 0 mm | - | - | - |
| 1777651202 | 15.56° C | 42% | - | 0 mm | - | - | - |
| 1777650715 | 16.11° C | 39% | - | 0 mm | - | - | - |
| 1777650002 | 16.67° C | 34% | - | 0 mm | - | - | - |
| 1777649516 | 17.78° C | 27% | - | 0 mm | - | - | - |
| 1777648916 | 19.44° C | 22% | - | 0 mm | - | - | - |
| 1777648802 | 20° C | 21% | - | 0 mm | - | - | - |
| 1777648316 | 20.56° C | 21% | - | 0 mm | - | - | - |
| 1777647716 | 20.56° C | 20% | - | 0 mm | - | - | - |
| 1777647602 | 21.11° C | 20% | - | 0 mm | - | - | - |
| 1777647116 | 22.22° C | 20% | - | 0 mm | - | - | - |
| 1777646516 | 23.33° C | 19% | - | 0 mm | - | - | - |
| 1777646403 | 23.33° C | 19% | - | 0 mm | - | - | - |
| 1777645916 | 24.44° C | 19% | - | 0 mm | - | - | - |
| 1777645316 | 24.44° C | 19% | - | 0 mm | - | - | - |
| 1777645202 | 23.89° C | 19% | - | 0 mm | - | - | - |
| 1777644716 | 22.22° C | 20% | - | 0 mm | - | - | - |
| 1777644116 | 22.78° C | 20% | - | 0 mm | - | - | - |
| 1777643515 | 22.22° C | 20% | - | 0 mm | - | - | - |
| 1777642915 | 22.78° C | 20% | - | 0 mm | - | - | - |
| 1777642802 | 22.78° C | 20% | - | 0 mm | - | - | - |
| 1777642316 | 22.22° C | 20% | - | 0 mm | - | - | - |
| 1777641716 | 23.89° C | 19% | - | 0 mm | - | - | - |
| 1777641602 | 24.44° C | 19% | - | 0 mm | - | - | - |
| 1777641116 | 24.44° C | 19% | - | 0 mm | - | - | - |
* Rain latest hour (hover to see other rain measurements)
** Current wind speed in m/s (hover to see current wind gust speed)